Voltar ao catálogo

USA 149

AtivoMilitarGEO
NORAD 26356·PAYLOAD·🇺🇸 United States

Lançado May 8, 2000 de Cape Canaveral Space Force Station

Loading…

TLE

AtualizadoSource: Space-Track

Época: Sep 14, 2026, 05:24 UTC

1 26356U 00024A   26257.22544705 -.00000317  00000-0  00000-0 0  9991
2 26356  13.2650  11.2764 0012064  39.3828 159.9298  0.99198219 33814

Acompanhe USA 149 em tempo real com AllMySat

Download on the App Store